This demonstration page uses our WeatherBlox Daily Observations layout. Learn more.

Left ArrowRight Arrow

Hourly Observations for September 29, 2018

Temp ( °F °C ) Dew Point ( °F °C ) Humidity (%) Winds ( mph kmh ) Pressure ( in mb ) Visibility ( mi km ) Precip ( " mm )
12:15 am 00:15 Cloudy 57 14 57 14 100 100 Calm 30.18 1022 10 16 0.00 0.00
12:35 am 00:35 Cloudy 57 14 57 14 100 100 Calm 30.18 1022 10 16 0.00 0.00
12:55 am 00:55 Mostly Cloudy 59 15 59 15 100 100 Calm 30.18 1022 10 16 0.00 0.00
1:15 am 01:15 Partly Cloudy 59 15 59 15 100 100 Calm 30.18 1022 10 16 0.00 0.00
1:35 am 01:35 Mostly Cloudy 57 14 57 14 100 100 Calm 30.18 1022 10 16 0.00 0.00
1:55 am 01:55 Mostly Cloudy 57 14 57 14 100 100 Calm 30.18 1022 10 16 0.00 0.00
2:15 am 02:15 Cloudy 57 14 57 14 100 100 Calm 30.18 1022 10 16 0.00 0.00
2:35 am 02:35 Cloudy 57 14 57 14 100 100 Calm 30.18 1022 10 16 0.00 0.00
2:55 am 02:55 Cloudy 57 14 57 14 100 100 Calm 30.18 1022 10 16 0.00 0.00
3:15 am 03:15 Cloudy 59 15 59 15 100 100 Calm 30.18 1022 10 16 0.00 0.00
3:35 am 03:35 Mostly Cloudy 57 14 57 14 100 100 Calm 30.18 1022 10 16 0.00 0.00
3:55 am 03:55 Partly Cloudy 55 13 55 13 100 100 Calm 30.18 1022 10 16 0.00 0.00
4:15 am 04:15 Cloudy 55 13 55 13 100 100 Calm 30.18 1022 10 16 0.00 0.00
4:35 am 04:35 Partly Cloudy 55 13 55 13 100 100 Calm 30.18 1022 10 16 0.00 0.00
4:55 am 04:55 Clear 55 13 55 13 100 100 Calm 30.18 1022 10 16 0.00 0.00
5:15 am 05:15 Clear 54 12 54 12 100 100 Calm 30.18 1022 10 16 0.00 0.00
5:35 am 05:35 Clear 54 12 54 12 100 100 Calm 30.18 1022 10 16 0.00 0.00
5:55 am 05:55 Clear 54 12 54 12 100 100 Calm 30.21 1023 7 11 0.00 0.00
6:15 am 06:15 Clear 54 12 54 12 100 100 Calm 30.21 1023 10 16 0.00 0.00
6:35 am 06:35 Partly Cloudy 54 12 54 12 100 100 Calm 30.21 1023 10 16 0.00 0.00
6:55 am 06:55 Partly Cloudy 52 11 52 11 100 100 Calm 30.24 1024 10 16 0.00 0.00
7:15 am 07:15 Sunny 52 11 52 11 100 100 Calm 30.24 1024 10 16 0.00 0.00
7:35 am 07:35 Sunny 52 11 52 11 100 100 Calm 30.24 1024 10 16 0.00 0.00
7:55 am 07:55 Sunny 54 12 54 12 100 100 Calm 30.24 1024 10 16 0.00 0.00
8:15 am 08:15 Sunny 55 13 55 13 100 100 Calm 30.24 1024 10 16 0.00 0.00
8:35 am 08:35 Sunny 59 15 57 14 94 94 Calm 30.24 1024 10 16 0.00 0.00
8:55 am 08:55 Sunny 63 17 59 15 88 88 N 3 6 30.24 1024 10 16 0.00 0.00
9:15 am 09:15 Sunny 64 18 59 15 83 83 NNW 12 19 30.24 1024 10 16 0.00 0.00
9:35 am 09:35 Sunny 64 18 59 15 83 83 NNW 12 19 30.27 1025 10 16 0.00 0.00
9:55 am 09:55 Sunny 66 19 59 15 78 78 NNW 12 19 30.27 1025 10 16 0.00 0.00
10:15 am 10:15 Sunny 68 20 57 14 69 69 N 10 17 30.27 1025 10 16 0.00 0.00
10:35 am 10:35 Sunny 68 20 59 15 73 73 NNW 8 13 30.27 1025 10 16 0.00 0.00
10:55 am 10:55 Sunny 70 21 57 14 64 64 NNW 10 17 30.27 1025 10 16 0.00 0.00
11:15 am 11:15 Sunny 70 21 55 13 60 60 NNW 7 11 30.27 1025 10 16 0.00 0.00
11:35 am 11:35 Sunny 72 22 57 14 61 61 NNW 9 15 30.27 1025 10 16 0.00 0.00
11:55 am 11:55 Sunny 72 22 57 14 61 61 NW 9 15 30.27 1025 10 16 0.00 0.00
12:15 pm 12:15 Sunny 72 22 57 14 61 61 NW 9 15 30.27 1025 10 16 0.00 0.00
12:35 pm 12:35 Partly Cloudy 73 23 57 14 57 57 Calm 30.27 1025 10 16 0.00 0.00
12:55 pm 12:55 Partly Cloudy 73 23 57 14 57 57 WNW 8 13 30.24 1024 10 16 0.00 0.00
1:15 pm 13:15 Partly Cloudy 73 23 55 13 53 53 NNW 9 15 30.24 1024 10 16 0.00 0.00
1:35 pm 13:35 Partly Cloudy 75 24 57 14 54 54 NW 6 9 30.24 1024 10 16 0.00 0.00
1:55 pm 13:55 Mostly Cloudy 75 24 57 14 54 54 NNW 6 9 30.24 1024 10 16 0.00 0.00
2:15 pm 14:15 Mostly Cloudy 75 24 57 14 54 54 Calm 30.24 1024 10 16 0.00 0.00
2:35 pm 14:35 Mostly Cloudy 75 24 55 13 50 50 Calm 30.24 1024 10 16 0.00 0.00
2:55 pm 14:55 Mostly Cloudy 77 25 57 14 51 51 N 5 7 30.24 1024 10 16 0.00 0.00
3:15 pm 15:15 Partly Cloudy 75 24 57 14 54 54 NNW 8 13 30.24 1024 10 16 0.00 0.00
3:35 pm 15:35 Sunny 77 25 59 15 54 54 WNW 9 15 30.24 1024 10 16 0.00 0.00
3:55 pm 15:55 Sunny 73 23 59 15 61 61 NNW 7 11 30.24 1024 10 16 0.00 0.00
4:15 pm 16:15 Sunny 77 25 59 15 54 54 N 7 11 30.24 1024 10 16 0.00 0.00
4:35 pm 16:35 Sunny 75 24 59 15 57 57 NNW 6 9 30.24 1024 10 16 0.00 0.00
4:55 pm 16:55 Sunny 75 24 59 15 57 57 NW 6 9 30.24 1024 10 16 0.00 0.00
5:15 pm 17:15 Sunny 73 23 59 15 61 61 N 5 7 30.24 1024 10 16 0.00 0.00
5:35 pm 17:35 Sunny 75 24 59 15 57 57 Calm 30.24 1024 10 16 0.00 0.00
5:55 pm 17:55 Sunny 73 23 59 15 61 61 Calm 30.24 1024 10 16 0.00 0.00
6:15 pm 18:15 Sunny 73 23 59 15 61 61 Calm 30.24 1024 10 16 0.00 0.00
6:35 pm 18:35 Sunny 73 23 59 15 61 61 Calm 30.24 1024 10 16 0.00 0.00
6:55 pm 18:55 Sunny 70 21 61 16 73 73 Calm 30.24 1024 10 16 0.00 0.00
7:15 pm 19:15 Clear 68 20 63 17 83 83 Calm 30.24 1024 10 16 0.00 0.00
7:35 pm 19:35 Clear 68 20 63 17 83 83 N 3 6 30.27 1025 10 16 0.00 0.00
7:55 pm 19:55 Clear 68 20 63 17 83 83 Calm 30.27 1025 10 16 0.00 0.00
8:15 pm 20:15 Clear 64 18 63 17 94 94 Calm 30.27 1025 10 16 0.00 0.00
8:35 pm 20:35 Partly Cloudy 64 18 63 17 94 94 Calm 30.27 1025 10 16 0.00 0.00
8:55 pm 20:55 Partly Cloudy 63 17 63 17 100 100 Calm 30.27 1025 10 16 0.00 0.00
9:15 pm 21:15 Mostly Cloudy 61 16 61 16 100 100 Calm 30.27 1025 10 16 0.00 0.00
9:35 pm 21:35 Mostly Cloudy 63 17 61 16 94 94 N 5 7 30.27 1025 10 16 0.00 0.00
9:55 pm 21:55 Partly Cloudy 63 17 61 16 94 94 N 6 9 30.30 1026 10 16 0.00 0.00
10:15 pm 22:15 Clear 64 18 61 16 88 88 NNE 6 9 30.30 1026 10 16 0.00 0.00
10:35 pm 22:35 Clear 64 18 59 15 83 83 N 6 9 30.30 1026 10 16 0.00 0.00
10:55 pm 22:55 Clear 63 17 59 15 88 88 N 5 7 30.30 1026 10 16 0.00 0.00
11:15 pm 23:15 Clear 63 17 59 15 88 88 N 3 6 30.30 1026 10 16 0.00 0.00
11:35 pm 23:35 Clear 61 16 59 15 94 94 Calm 30.30 1026 10 16 0.00 0.00
11:55 pm 23:55 Clear 61 16 59 15 94 94 Calm 30.30 1026 10 16 0.00 0.00

Powered by AerisWeather